Location: Cedar Ridge
(38.0658°N, 120.2769°W)
Time: 20:13:47
(UTC+00:00)

Cosmos 540 Rocket - Pass Details

Date: 10 September 2024
Orbit: 737 x 749 km, 74.1° (Epoch: 11 October)

Event Time Altitude Azimuth Distance (km) Brightness Sun altitude
Rises 12:25:56 0° 338° (NNW) 3,182 6.7 -14.9°
Reaches altitude 10° 12:28:18 10° 335° (NNW) 2,257 5.9 -14.4°
Maximum altitude 12:33:21 65° 255° (WSW) 818 3.4 -13.5°
Drops below altitude 10° 12:38:24 10° 174° (S) 2,250 5.8 -12.5°
Sets 12:40:45 0° 172° (S) 3,172 6.6 -12.1°
